Miscellaneous Local Product
Issued by NWS Hastings, NE

Home | Current Version | Previous Version | Graphics & Text | Print | Product List | Glossary On
Versions: 1 2 3 4 5 6 7 8 9 10 11 12 13 14 15 16 17 18 19 20 21 22 23 24 25 26 27 28 29 30 31 32 33 34 35 36 37 38 39 40 41 42 43 44 45 46 47 48 49 50
000
AXUS43 KGID 222002
MISGRI

GID CWA HOURLY WEATHER ROUNDUP
NATIONAL WEATHER SERVICE HASTINGS NE
200 PM CST WED NOV 22 2017

NOTE: "FAIR" INDICATES FEW OR NO CLOUDS BELOW 12,000 FEET WITH NO
SIGNIFICANT WEATHER AND/OR OBSTRUCTIONS TO VISIBILITY.

...SOUTH CENTRAL NEBRASKA...

CITY           SKY/WX    TMP DP  RH WIND       PRES   REMARKS
GRAND ISLAND   CLOUDY    47  22  37 SW20G26   30.11F
KEARNEY        SUNNY     51  25  36 S17       30.10F
HASTINGS       SUNNY     46  18  32 SW16G25   30.13F
ORD            SUNNY     51  26  37 S14       30.05F
YORK           SUNNY     43  18  36 SW20G25   30.15F
AURORA         CLOUDY    47  19  32 SW17      30.13F
LEXINGTON      SUNNY     56  31  38 SW10      30.09F
HOLDREGE       SUNNY     54  30  39 SW16      30.10F
HEBRON         SUNNY     45  16  31 S15       30.18F

...NEBRASKA PANHANDLE...

CITY           SKY/WX    TMP DP  RH WIND       PRES   REMARKS
CHADRON        MOSUNNY   66  39  37 W12       30.06F
ALLIANCE       SUNNY     69  36  29 NW15      30.08F
SCOTTSBLUFF    CLOUDY    69  37  30 NW17      30.12F
SIDNEY         SUNNY     69  37  30 NW21      30.14F

...WESTERN AND NORTH CENTRAL NEBRASKA...

CITY           SKY/WX    TMP DP  RH WIND       PRES   REMARKS
VALENTINE      SUNNY     71  35  26 W17       29.99F
AINSWORTH      SUNNY     67  36  31 W14       29.98F
ONEILL         SUNNY     49  28  43 S14       30.01F
BROKEN BOW     SUNNY     57  31  37 SW12      30.05F
IMPERIAL       SUNNY     70  38  31 NW12      30.09F
NORTH PLATTE   SUNNY     65  38  36 NW8       30.07F
MCCOOK         SUNNY     64  37  36 SW6       30.09F

...EASTERN NEBRASKA...

CITY           SKY/WX    TMP DP  RH WIND       PRES   REMARKS
NORFOLK        CLOUDY    42  18  37 SW21G28   30.07F
SO SIOUX CITY  CLOUDY    36  16  44 S15       30.14F WCI  27
TEKAMAH        CLOUDY    37  15  40 S18G26    30.17F WCI  27
COLUMBUS       SUNNY     42  17  36 S22G28    30.13F
ALBION         SUNNY     46  21  37 S16G25    30.08F
OMAHA EPPLEY   CLOUDY    37  14  38 S16       30.20F WCI  28
OFFUTT AFB     CLOUDY    38  13  35 S13       30.20F WCI  30
MILLARD        CLOUDY    39  16  38 S10G17    30.20F WCI  32
LINCOLN        MOSUNNY   40  15  36 S16       30.18F WCI  31
NEBRASKA CITY  CLOUDY    39  17  40 S14G21    30.22F WCI  31
BEATRICE       SUNNY     40  17  38 S17       30.20F WCI  32
FALLS CITY     SUNNY     40  15  36 S9        30.26F WCI  34

...NORTHERN KANSAS...

CITY           SKY/WX    TMP DP  RH WIND       PRES   REMARKS
GOODLAND       SUNNY     70  33  25 W16G22    30.14F
HILL CITY      SUNNY     61  32  33 SW10G21   30.14F
NORTON         CLEAR     61  25  25 S9        30.10F
PHILLIPSBURG   SUNNY     57  25  28 S12       30.13F
SMITH CENTER   SUNNY     52  21  30 S15G21    30.16
HAYS           SUNNY     57  25  29 SW22      30.16F
RUSSELL        SUNNY     54  22  28 S24G30    30.16F
CONCORDIA      SUNNY     45  17  32 S16G23    30.20F
SALINA         SUNNY     50  18  28 S13       30.24F
TOPEKA         CLOUDY    43  15  32 S8        30.30F



USA.gov is the U.S. government's official web portal to all federal, state and local government web resources and services.